GW1800 Weather Reports


Display with metric or nautical units.
time (UTC)temp
F
wind
direction
speed
MPH
gust
MPH
rain 1hr
in
rain 24hr
in
rain mn
in
humidity
%
barometer
mb
20260509013236 64 173 2.0 2.0 0.00 0.00 0.00 52 993.3
20260509012733 65 203 2.0 3.0 0.00 0.00 0.00 51 993.1
20260509012230 65 208 3.0 3.0 0.00 0.00 0.00 51 993.1
20260509011727 65 182 1.0 1.0 0.00 0.00 0.00 51 993.0
20260509011225 65 198 4.0 6.0 0.00 0.00 0.00 50 993.1
20260509010723 65 216 3.0 3.0 0.00 0.00 0.00 50 993.0
20260509010219 65 195 1.0 2.0 0.00 0.00 0.00 51 993.1
20260509005717 65 216 2.0 2.0 0.00 0.00 0.00 51 993.0
20260509005214 65 210 3.0 3.0 0.00 0.00 0.00 50 993.1
20260509004714 66 195 2.0 3.0 0.00 0.00 0.00 50 993.0
20260509004212 66 204 4.0 5.0 0.00 0.00 0.00 49 993.0
20260509003710 66 203 3.0 5.0 0.00 0.00 0.00 50 992.9
20260509003207 66 247 3.0 3.0 0.00 0.00 0.00 50 992.8
20260509002704 66 203 6.0 7.0 0.00 0.00 0.00 49 992.9
20260509002201 66 223 3.0 3.0 0.00 0.00 0.00 49 992.9
20260509001659 66 207 2.0 2.0 0.00 0.00 0.00 49 992.8
20260509001155 66 260 5.0 6.0 0.00 0.00 0.00 48 992.9
20260509000653 66 212 2.0 2.0 0.00 0.00 0.00 49 992.9
20260509000149 66 209 4.0 5.0 0.00 0.00 0.00 49 993.0
20260508235647 67 211 4.0 6.0 0.00 0.00 0.00 49 993.0
20260508235143 67 217 4.0 5.0 0.00 0.00 0.00 48 993.0
20260508234640 67 245 4.0 5.0 0.00 0.00 0.00 48 993.0
20260508234136 67 249 5.0 6.0 0.00 0.00 0.00 47 993.0
20260508233631 67 209 5.0 6.0 0.00 0.00 0.00 46 992.9
20260508233128 67 206 4.0 5.0 0.00 0.00 0.00 47 993.1
20260508232625 67 203 4.0 6.0 0.00 0.00 0.00 47 993.1
20260508232121 67 263 8.0 10.0 0.00 0.00 0.00 47 992.9
20260508231619 67 242 5.0 7.0 0.00 0.00 0.00 47 993.0
20260508231116 68 222 3.0 5.0 0.00 0.00 0.00 48 992.9
20260508230612 68 260 4.0 6.0 0.00 0.00 0.00 47 993.1
20260508230109 68 215 3.0 5.0 0.00 0.00 0.00 48 992.7
20260508225607 68 214 5.0 7.0 0.00 0.00 0.00 48 992.9
20260508225103 68 209 4.0 6.0 0.00 0.00 0.00 48 992.9
20260508224601 68 221 2.0 2.0 0.00 0.00 0.00 48 992.9
20260508224058 68 198 3.0 6.0 0.00 0.00 0.00 47 992.9
20260508223556 68 225 5.0 6.0 0.00 0.00 0.00 47 992.7
20260508223053 68 241 6.0 7.0 0.00 0.00 0.00 46 992.8
20260508222550 68 244 5.0 7.0 0.00 0.00 0.00 45 992.8
20260508222047 68 237 3.0 3.0 0.00 0.00 0.00 47 992.9
20260508221543 69 210 5.0 7.0 0.00 0.00 0.00 46 992.7
20260508221039 69 212 4.0 5.0 0.00 0.00 0.00 45 992.6
20260508220536 69 226 3.0 6.0 0.00 0.00 0.00 47 992.8
20260508220032 69 206 6.0 8.0 0.00 0.00 0.00 46 992.6
20260508215529 69 195 4.0 6.0 0.00 0.00 0.00 46 992.8
20260508215026 69 194 3.0 5.0 0.00 0.00 0.00 46 992.7
20260508214524 70 249 5.0 8.0 0.00 0.00 0.00 45 992.8
20260508214020 69 219 5.0 7.0 0.00 0.00 0.00 46 992.9
20260508213517 69 246 4.0 6.0 0.00 0.00 0.00 46 992.8
20260508213013 69 211 7.0 11.0 0.00 0.00 0.00 45 992.7
20260508212509 70 239 7.0 9.0 0.00 0.00 0.00 45 992.8
20260508212006 70 226 7.0 11.0 0.00 0.00 0.00 45 993.0
20260508211501 69 253 9.0 10.0 0.00 0.00 0.00 45 993.0
20260508210958 69 233 8.0 13.0 0.00 0.00 0.00 45 993.1
20260508210455 71 223 6.0 7.0 0.00 0.00 0.00 43 993.2
20260508205951 71 236 8.0 10.0 0.00 0.00 0.00 44 993.3
20260508205448 70 236 3.0 3.0 0.00 0.00 0.00 46 993.3
20260508204945 70 197 5.0 7.0 0.00 0.00 0.00 45 993.2
20260508204442 71 214 9.0 13.0 0.00 0.00 0.00 44 993.4
20260508203937 71 162 4.0 5.0 0.00 0.00 0.00 43 993.5
20260508203434 69 241 4.0 6.0 0.00 0.00 0.00 45 993.6
20260508202929 70 234 8.0 15.0 0.00 0.00 0.00 43 993.7
20260508202427 70 211 4.0 6.0 0.00 0.00 0.00 46 993.4
20260508201924 69 178 4.0 6.0 0.00 0.00 0.00 44 993.7
20260508201421 69 240 7.0 8.0 0.00 0.00 0.00 43 993.8
20260508200917 69 179 4.0 6.0 0.00 0.00 0.00 47 994.0
20260508200414 69 220 2.0 3.0 0.00 0.00 0.00 45 994.1
20260508195904 70 229 4.0 5.0 0.00 0.00 0.00 43 994.2
20260508195401 70 210 3.0 3.0 0.00 0.00 0.00 45 994.1
20260508194857 70 234 4.0 6.0 0.00 0.00 0.00 43 994.2
20260508194354 71 219 8.0 11.0 0.00 0.00 0.00 41 994.2
20260508193851 70 211 5.0 7.0 0.00 0.00 0.00 44 994.5
20260508193348 70 232 7.0 9.0 0.00 0.00 0.00 41 994.2
20260508192844 71 240 6.0 8.0 0.00 0.00 0.00 43 994.2
20260508192341 71 233 4.0 6.0 0.00 0.00 0.00 43 994.3
20260508191838 70 180 3.0 3.0 0.00 0.00 0.00 44 994.3
20260508191336 70 197 2.0 2.0 0.00 0.00 0.00 46 994.4
20260508190833 70 232 4.0 5.0 0.00 0.00 0.00 42 994.4
20260508190329 70 219 5.0 8.0 0.00 0.00 0.00 43 994.5
20260508185825 70 198 5.0 7.0 0.00 0.00 0.00 45 994.5
20260508185323 70 328 5.0 7.0 0.00 0.00 0.00 43 994.6
20260508184820 70 207 6.0 8.0 0.00 0.00 0.00 42 994.7
20260508184317 69 205 3.0 5.0 0.00 0.00 0.00 45 995.0
20260508183814 69 227 6.0 7.0 0.00 0.00 0.00 42 995.0
20260508183311 69 196 4.0 6.0 0.00 0.00 0.00 44 995.1
20260508182806 69 213 2.0 3.0 0.00 0.00 0.00 43 995.1
20260508182306 70 241 10.0 11.0 0.00 0.00 0.00 43 995.3
20260508181759 69 310 3.0 3.0 0.00 0.00 0.00 46 995.3
20260508181256 70 254 6.0 8.0 0.00 0.00 0.00 45 995.5
20260508180753 69 227 3.0 3.0 0.00 0.00 0.00 49 995.5
20260508180250 69 200 9.0 15.0 0.00 0.00 0.00 43 995.6
20260508175746 69 256 5.0 6.0 0.00 0.00 0.00 46 995.8
20260508175243 69 215 7.0 8.0 0.00 0.00 0.00 44 995.7
20260508174741 69 200 5.0 7.0 0.00 0.00 0.00 47 995.8
20260508174238 69 188 4.0 6.0 0.00 0.00 0.00 46 996.0
20260508173734 69 188 9.0 11.0 0.00 0.00 0.00 44 995.8
20260508173230 68 214 9.0 9.0 0.00 0.00 0.00 46 996.0
20260508172727 68 178 2.0 2.0 0.00 0.00 0.00 47 996.2
20260508172224 68 226 5.0 7.0 0.00 0.00 0.00 51 996.3
20260508171721 68 202 2.0 2.0 0.00 0.00 0.00 49 996.3
20260508171217 68 227 4.0 5.0 0.00 0.00 0.00 49 996.6
20260508170714 68 129 3.0 3.0 0.00 0.00 0.00 48 996.5
20260508170212 67 189 1.0 1.0 0.00 0.00 0.00 50 996.6
20260508165708 68 280 4.0 5.0 0.00 0.00 0.00 51 996.7
20260508165206 68 263 4.0 6.0 0.00 0.00 0.00 48 996.9
20260508164702 68 231 4.0 7.0 0.00 0.00 0.00 50 997.0
20260508164159 67 276 5.0 8.0 0.00 0.00 0.00 48 997.0
20260508163657 68 231 5.0 8.0 0.00 0.00 0.00 50 997.1
20260508163154 67 236 4.0 5.0 0.00 0.00 0.00 50 997.4
20260508162649 66 229 4.0 7.0 0.00 0.00 0.00 51 997.2
20260508162147 66 162 5.0 8.0 0.00 0.00 0.00 51 997.4
20260508161644 66 274 6.0 7.0 0.00 0.00 0.00 50 997.5
20260508161141 66 187 3.0 5.0 0.00 0.00 0.00 51 997.6
20260508160639 65 254 5.0 10.0 0.00 0.00 0.00 51 997.7
20260508160137 65 296 5.0 7.0 0.00 0.00 0.00 50 997.7
20260508155634 65 169 7.0 9.0 0.00 0.00 0.00 49 997.7
20260508155131 65 208 9.0 9.0 0.00 0.00 0.00 50 997.8
20260508154628 64 210 2.0 2.0 0.00 0.00 0.00 54 997.9
20260508154124 65 247 6.0 9.0 0.00 0.00 0.00 51 997.8
20260508153621 65 208 5.0 8.0 0.00 0.00 0.00 53 997.9
20260508153118 66 236 7.0 9.0 0.00 0.00 0.00 51 998.0
20260508152615 65 280 5.0 6.0 0.00 0.00 0.00 53 998.2
20260508152110 63 238 1.0 3.0 0.00 0.00 0.00 54 998.2
20260508151607 63 232 7.0 9.0 0.00 0.00 0.00 51 998.3
20260508151104 63 220 7.0 10.0 0.00 0.00 0.00 52 998.4
20260508150601 63 247 6.0 9.0 0.00 0.00 0.00 54 998.4
20260508150057 63 293 3.0 6.0 0.00 0.00 0.00 54 998.4
20260508145554 63 237 6.0 8.0 0.00 0.00 0.00 54 998.2
20260508145050 62 231 5.0 6.0 0.00 0.00 0.00 53 998.4
20260508144548 62 215 5.0 8.0 0.00 0.00 0.00 55 998.2
20260508144045 61 202 6.0 8.0 0.00 0.00 0.00 56 998.4
20260508143542 61 309 13.0 15.0 0.00 0.00 0.00 55 998.3
20260508143039 61 231 3.0 5.0 0.00 0.00 0.00 57 998.2
20260508142536 61 262 2.0 3.0 0.00 0.00 0.00 58 998.5
20260508142032 60 191 2.0 2.0 0.00 0.00 0.00 58 998.6
20260508141529 60 196 4.0 5.0 0.00 0.00 0.00 58 998.6
20260508141027 60 222 3.0 3.0 0.00 0.00 0.00 59 998.6
20260508140524 59 325 5.0 6.0 0.00 0.00 0.00 58 998.6
20260508140020 59 282 3.0 5.0 0.00 0.00 0.00 60 998.5
20260508135515 59 259 4.0 6.0 0.00 0.00 0.00 60 998.8
20260508135012 57 215 5.0 6.0 0.00 0.00 0.00 60 998.7
20260508134509 58 193 4.0 5.0 0.00 0.00 0.00 59 998.7
20260508134006 57 206 3.0 5.0 0.00 0.00 0.00 62 998.6
20260508133503 56 212 6.0 8.0 0.00 0.00 0.00 61 998.7
20260508133000 56 210 5.0 7.0 0.00 0.00 0.00 63 998.6
20260508132458 55 226 4.0 5.0 0.00 0.00 0.00 64 998.6
20260508131954 54 215 3.0 3.0 0.00 0.00 0.00 65 998.7
20260508131449 54 209 3.0 3.0 0.00 0.00 0.00 64 998.7
20260508130946 53 249 3.0 6.0 0.00 0.00 0.00 65 998.6
20260508130444 53 196 5.0 6.0 0.00 0.00 0.00 64 998.7
20260508125939 53 242 3.0 5.0 0.00 0.00 0.00 65 998.6
20260508125435 52 233 4.0 6.0 0.00 0.00 0.00 66 998.5
20260508124933 52 237 3.0 3.0 0.00 0.00 0.00 67 998.6
20260508124431 52 197 2.0 2.0 0.00 0.00 0.00 68 998.5
20260508123928 51 197 1.0 2.0 0.00 0.00 0.00 68 998.7
20260508123427 50 232 5.0 5.0 0.00 0.00 0.00 68 998.5
20260508122923 50 203 3.0 5.0 0.00 0.00 0.00 70 998.5
20260508122420 50 233 3.0 3.0 0.00 0.00 0.00 71 998.4
20260508121917 49 189 2.0 3.0 0.00 0.00 0.00 71 998.3
20260508121415 49 219 3.0 3.0 0.00 0.00 0.00 71 998.5
20260508120913 48 209 3.0 3.0 0.00 0.00 0.00 71 998.4
20260508120410 48 230 3.0 5.0 0.00 0.00 0.00 72 998.6
20260508115908 48 217 2.0 2.0 0.00 0.00 0.00 73 998.7
20260508115406 47 198 1.0 2.0 0.00 0.00 0.00 74 998.4
20260508114901 47 223 3.0 5.0 0.00 0.00 0.00 75 998.3
20260508114359 46 235 3.0 5.0 0.00 0.00 0.00 75 998.2
20260508113855 46 251 3.0 3.0 0.00 0.00 0.00 76 998.3
20260508113353 45 219 2.0 2.0 0.00 0.00 0.00 78 998.2
20260508112850 45 221 2.0 2.0 0.00 0.00 0.00 78 998.2
20260508112347 44 198 3.0 3.0 0.00 0.00 0.00 79 998.1
20260508111843 44 216 3.0 3.0 0.00 0.00 0.00 80 998.2
20260508111340 43 193 1.0 1.0 0.00 0.00 0.00 81 998.0
20260508110837 43 199 1.0 1.0 0.00 0.00 0.00 81 998.3
20260508110335 43 194 1.0 1.0 0.00 0.00 0.00 81 998.1
20260508105835 42 200 1.0 2.0 0.00 0.00 0.00 82 997.9
20260508105332 42 195 0.0 0.0 0.00 0.00 0.00 84 998.0
20260508104829 42 201 0.0 0.0 0.00 0.00 0.00 84 998.1
20260508104325 42 186 0.0 0.0 0.00 0.00 0.00 84 997.8
20260508103823 42 192 1.0 1.0 0.00 0.00 0.00 84 997.9
20260508103319 42 182 0.0 0.0 0.00 0.00 0.00 84 998.0
20260508102817 42 189 0.0 0.0 0.00 0.00 0.00 84 997.8
20260508102315 42 200 0.0 0.0 0.00 0.00 0.00 84 998.0
20260508101812 42 193 0.0 0.0 0.00 0.00 0.00 85 998.0
20260508101310 41 193 0.0 0.0 0.00 0.00 0.00 86 997.9
20260508100807 41 193 0.0 0.0 0.00 0.00 0.00 86 997.9
20260508100306 41 193 0.0 0.0 0.00 0.00 0.00 86 997.9
20260508095801 41 193 0.0 0.0 0.00 0.00 0.00 87 998.2
20260508095259 41 193 0.0 0.0 0.00 0.00 0.00 86 997.9
20260508094755 41 193 0.0 0.0 0.00 0.00 0.00 86 998.1
20260508094252 40 192 0.0 0.0 0.00 0.00 0.00 87 997.8
20260508093749 40 192 0.0 0.0 0.00 0.00 0.00 89 997.7
20260508093247 40 193 0.0 0.0 0.00 0.00 0.00 89 997.9
20260508092743 39 193 0.0 0.0 0.00 0.00 0.00 89 997.8
20260508092242 40 193 0.0 0.0 0.00 0.00 0.00 88 997.9
20260508091740 40 193 0.0 0.0 0.00 0.00 0.00 88 997.6
20260508091236 40 193 0.0 0.0 0.00 0.00 0.00 88 997.7
20260508090734 40 193 0.0 0.0 0.00 0.00 0.00 89 997.7
20260508090232 40 193 0.0 0.0 0.00 0.00 0.00 91 997.9
20260508085727 39 193 0.0 0.0 0.00 0.00 0.00 93 997.9
20260508085225 39 193 0.0 0.0 0.00 0.00 0.00 92 997.8
20260508084720 38 193 0.0 0.0 0.00 0.00 0.00 91 997.7
20260508084218 39 193 0.0 0.0 0.00 0.00 0.00 91 997.7
20260508083715 39 193 0.0 0.0 0.00 0.00 0.00 90 997.9
20260508083213 39 193 0.0 0.0 0.00 0.00 0.00 90 997.8
20260508082708 40 193 0.0 0.0 0.00 0.00 0.00 89 997.7
20260508082206 40 193 0.0 0.0 0.00 0.00 0.00 88 997.8
20260508081703 40 193 0.0 0.0 0.00 0.00 0.00 87 997.7
20260508081159 40 193 0.0 0.0 0.00 0.00 0.00 85 997.6
20260508080656 41 193 0.0 0.0 0.00 0.00 0.00 84 997.6
20260508080155 42 193 0.0 0.0 0.00 0.00 0.00 83 997.6
20260508075651 42 193 0.0 0.0 0.00 0.00 0.00 81 997.4
20260508075148 43 193 0.0 0.0 0.00 0.00 0.00 80 997.5
20260508074645 42 193 0.0 0.0 0.00 0.00 0.00 81 997.6
20260508074142 42 192 0.0 0.0 0.00 0.00 0.00 82 997.6
20260508073639 42 192 0.0 0.0 0.00 0.00 0.00 82 997.6
20260508073137 42 192 0.0 0.0 0.00 0.00 0.00 82 997.4
20260508072633 42 192 0.0 0.0 0.00 0.00 0.00 83 997.5
20260508072130 42 192 0.0 0.0 0.00 0.00 0.00 85 997.8
20260508071627 41 192 0.0 0.0 0.00 0.00 0.00 87 997.6
20260508071126 41 192 0.0 0.0 0.00 0.00 0.00 88 997.6
20260508070623 41 192 0.0 0.0 0.00 0.00 0.00 88 997.8
20260508070122 41 192 0.0 0.0 0.00 0.00 0.00 87 997.9
20260508065618 41 192 0.0 0.0 0.00 0.00 0.00 87 998.1
20260508065116 40 192 0.0 0.0 0.00 0.00 0.00 88 998.0
20260508064613 40 192 0.0 0.0 0.00 0.00 0.00 88 998.2
20260508064112 40 192 0.0 0.0 0.00 0.00 0.00 88 998.2
20260508063609 40 192 0.0 0.0 0.00 0.00 0.00 87 998.1
20260508063107 41 192 0.0 0.0 0.00 0.00 0.00 86 998.1
20260508062604 41 192 0.0 0.0 0.00 0.00 0.00 86 998.5
20260508062100 41 192 0.0 0.0 0.00 0.00 0.00 84 998.3
20260508061558 42 192 0.0 0.0 0.00 0.00 0.00 83 998.3
20260508061055 42 192 0.0 0.0 0.00 0.00 0.00 82 998.5
20260508060552 42 192 0.0 0.0 0.00 0.00 0.00 81 998.4
20260508060049 42 192 0.0 0.0 0.00 0.00 0.00 81 998.5
20260508055544 43 192 0.0 0.0 0.00 0.00 0.00 81 998.5
20260508055042 43 192 0.0 0.0 0.00 0.00 0.00 81 998.5
20260508054538 43 192 0.0 0.0 0.00 0.00 0.00 81 998.4
20260508054035 43 192 0.0 0.0 0.00 0.00 0.00 80 998.6
20260508053532 43 192 0.0 0.0 0.00 0.00 0.00 80 998.4
20260508053031 44 192 0.0 0.0 0.00 0.00 0.00 79 998.6
20260508052527 44 192 0.0 0.0 0.00 0.00 0.00 78 998.3
20260508052024 43 192 0.0 0.0 0.00 0.00 0.00 80 998.4
20260508051520 43 192 0.0 0.0 0.00 0.00 0.00 81 998.4
20260508051015 43 192 0.0 0.0 0.00 0.00 0.00 81 998.3
20260508050512 44 192 0.0 0.0 0.00 0.00 0.00 80 998.1
20260508050010 44 192 0.0 0.0 0.00 0.00 0.00 80 998.3
20260508045506 44 192 0.0 0.0 0.00 0.00 0.00 78 998.5
20260508045004 44 192 0.0 0.0 0.00 0.00 0.00 76 998.4
20260508044501 44 192 0.0 0.0 0.00 0.00 0.00 75 998.4
20260508043956 45 192 0.0 0.0 0.00 0.00 0.00 74 998.4
20260508043453 45 192 0.0 0.0 0.00 0.00 0.00 74 998.3
20260508042949 45 192 0.0 0.0 0.00 0.00 0.00 76 998.5
20260508042447 44 192 0.0 0.0 0.00 0.00 0.00 78 998.3
20260508041944 45 192 0.0 0.0 0.00 0.00 0.00 79 998.2
20260508041440 45 192 0.0 0.0 0.00 0.00 0.00 78 998.1
20260508040937 45 191 0.0 0.0 0.00 0.00 0.00 76 998.2
20260508040435 45 191 0.0 0.0 0.00 0.00 0.00 76 998.3
20260508035932 46 191 0.0 0.0 0.00 0.00 0.00 76 998.3
20260508035429 46 191 0.0 0.0 0.00 0.00 0.00 74 998.4
20260508034926 46 191 0.0 0.0 0.00 0.00 0.00 74 998.2
20260508034423 46 191 0.0 0.0 0.00 0.00 0.00 74 998.3
20260508033919 46 191 0.0 0.0 0.00 0.00 0.00 74 998.3
20260508033418 46 191 0.0 0.0 0.00 0.00 0.00 76 998.4
20260508032915 46 190 0.0 0.0 0.00 0.00 0.00 77 998.3
20260508032412 46 189 0.0 0.0 0.00 0.00 0.00 77 998.3
20260508031909 46 189 0.0 0.0 0.00 0.00 0.00 77 998.3
20260508031407 45 187 0.0 0.0 0.00 0.00 0.00 78 998.3
20260508030902 45 185 0.0 0.0 0.00 0.00 0.00 80 998.3
20260508030359 45 185 0.0 0.0 0.00 0.00 0.00 82 998.3
20260508025856 44 182 0.0 0.0 0.00 0.00 0.00 83 998.3
20260508025353 44 177 0.0 0.0 0.00 0.00 0.00 83 998.3
20260508024850 44 176 0.0 0.0 0.00 0.00 0.00 83 998.3
20260508024346 44 185 0.0 0.0 0.00 0.00 0.00 83 998.2
20260508023843 44 185 0.0 0.0 0.00 0.00 0.00 84 998.0
20260508023340 45 185 0.0 0.0 0.00 0.00 0.00 83 998.2
20260508022837 45 185 0.0 0.0 0.00 0.00 0.00 84 998.1
20260508022332 44 185 0.0 0.0 0.00 0.00 0.00 84 998.1
20260508021830 44 185 0.0 0.0 0.00 0.00 0.00 82 998.0
20260508021326 45 185 0.0 0.0 0.00 0.00 0.00 82 998.2
20260508020822 45 185 0.0 0.0 0.00 0.00 0.00 81 998.2
20260508020320 46 185 0.0 0.0 0.00 0.00 0.00 80 998.1
20260508015817 47 185 0.0 0.0 0.00 0.00 0.00 79 998.2
20260508015314 47 185 0.0 0.0 0.00 0.00 0.00 77 998.3
20260508014811 47 185 0.0 0.0 0.00 0.00 0.00 77 998.2
20260508014308 47 185 0.0 0.0 0.00 0.00 0.00 76 998.0
20260508013803 47 185 0.0 0.0 0.00 0.00 0.00 76 997.9